Retour au catalogue

COSMOS 2251 DEB

ActifLEO
NORAD 34064·DEBRIS·🇷🇺 Russia

Lancé Jun 16, 1993 depuis Plesetsk Cosmodrome

Loading…

Prochains Passages (prochaines 24 heures)

TLE

FraisSource: Space-Track

Époque: Sep 14, 2026, 02:29 UTC

1 34064U 93036KB  26257.10361687  .00000805  00000-0  24701-3 0  9992
2 34064  74.0307 119.6479 0021705 124.4575  32.0611 14.43097235921137

Suivez COSMOS 2251 DEB en temps réel avec AllMySat

Download on the App Store